Kapolei, HI

9:33 AM HST on September 29, 2016 (GMT -1000)
Kalaeloa (John Rodgers Field)

Weather History for PHJR - May, 2013

Change the Weather History Date:

Wednesday, May 1, 2013

  Actual Average (PHNL) Record (PHNL)
Temperature  
Mean Temperature 72 °F 77 °F  
Max Temperature 79 °F 83 °F 87 °F (1970)
Min Temperature 64 °F 70 °F 62 °F (1989)
Degree Days  
Heating Degree Days 0 0  
Month to date heating degree days 0  
Since 1 July heating degree days 0  
Cooling Degree Days 6 12  
Month to date cooling degree days 12  
Year to date cooling degree days 1119  
Growing Degree Days 22 (Base 50)    
Moisture  
Dew Point 66 °F    
Average Humidity 81    
Maximum Humidity 100    
Minimum Humidity 60    
Precipitation  
Precipitation 0.00 in 0.02 in 0.09 in (1961)
Month to date precipitation 0.02  
Year to date precipitation 6.97  
Snow  
Snow 0.00 in - - ()
Month to date snowfall  
Since 1 July snowfall  
Snow Depth -    
Sea Level Pressure  
Sea Level Pressure 30.06 in    
Wind  
Wind Speed 3 mph (ESE)    
Max Wind Speed 14 mph    
Max Gust Speed 21 mph    
Visibility 10 miles    
Events      
T = Trace of Precipitation, MM = Missing Value Source: NWS Daily Summary

Daily Weather History Graph

Daily Weather History Graph

Search for Another Location

Airport or City:

Trip Planner

Search our weather history database for the weather conditions in past years. The results will help you decide how hot, cold, wet, or windy it might be!

Date:

Astronomy

May. 01, 2013 Rise Set
Actual Time 6:01 AM HST 6:57 PM HST
Civil Twilight 5:37 AM HST 7:21 PM HST
Nautical Twilight 5:10 AM HST 7:48 PM HST
Astronomical Twilight 4:42 AM HST 8:16 PM HST
Moon 12:14 AM HST (5/1) 11:50 AM HST (5/1)
Length of Visible Light 13h 43m
Length of Day
12h 56m
Waning Gibbous, 56% of the Moon is Illuminated
May 1
Waning Gibbous
May 2
Last Quarter
May 9
New
May 17
First Quarter
May 24
Full

Hourly Weather History & Observations

Time (HST) Temp. Dew Point Humidity Pressure Visibility Wind Dir Wind Speed Gust Speed Precip Events Conditions
12:53 AM 66.0 °F 66.0 °F 100% 30.05 in 10.0 mi Calm Calm - N/A   Clear
1:53 AM 64.9 °F 64.9 °F 100% 30.04 in 10.0 mi Calm Calm - N/A   Clear
2:53 AM 66.0 °F 64.9 °F 96% 30.04 in 10.0 mi Calm Calm - N/A   Clear
3:14 AM 66.2 °F 64.4 °F 94% 30.02 in 10.0 mi Calm Calm - N/A   Scattered Clouds
3:53 AM 64.9 °F 64.9 °F 100% 30.03 in 10.0 mi Calm Calm - N/A   Clear
4:53 AM 64.9 °F 64.0 °F 97% 30.04 in 10.0 mi Variable 3.5 mph - N/A   Clear
5:53 AM 66.0 °F 64.0 °F 93% 30.05 in 10.0 mi Calm Calm - N/A   Clear
6:53 AM 68.0 °F 64.9 °F 90% 30.07 in 10.0 mi Calm Calm - N/A   Clear
7:53 AM 73.0 °F 66.0 °F 79% 30.08 in 10.0 mi Variable 4.6 mph - N/A   Clear
8:53 AM 75.0 °F 64.9 °F 71% 30.09 in 10.0 mi ENE 8.1 mph - N/A   Clear
9:53 AM 75.9 °F 66.0 °F 71% 30.09 in 10.0 mi ESE 8.1 mph - N/A   Partly Cloudy
10:53 AM 75.9 °F 68.0 °F 76% 30.08 in 10.0 mi ESE 13.8 mph 19.6 mph N/A   Scattered Clouds
11:53 AM 79.0 °F 68.0 °F 69% 30.07 in 10.0 mi ESE 9.2 mph - N/A   Mostly Cloudy
12:53 PM 77.0 °F 66.9 °F 71% 30.06 in 10.0 mi ESE 12.7 mph 19.6 mph N/A   Mostly Cloudy
1:53 PM 78.1 °F 66.9 °F 68% 30.04 in 10.0 mi ESE 12.7 mph 18.4 mph N/A   Mostly Cloudy
2:53 PM 77.0 °F 68.0 °F 74% 30.04 in 10.0 mi SE 10.4 mph 18.4 mph N/A   Mostly Cloudy
3:53 PM 77.0 °F 69.1 °F 76% 30.03 in 10.0 mi ESE 12.7 mph 20.7 mph N/A   Scattered Clouds
4:53 PM 79.0 °F 68.0 °F 69% 30.03 in 10.0 mi East 9.2 mph - N/A   Scattered Clouds
5:53 PM 78.1 °F 63.0 °F 60% 30.04 in 10.0 mi Variable 4.6 mph - N/A   Partly Cloudy
6:53 PM 73.9 °F 63.0 °F 68% 30.06 in 10.0 mi ENE 5.8 mph - N/A   Partly Cloudy
7:53 PM 73.0 °F 64.9 °F 76% 30.09 in 10.0 mi ENE 3.5 mph - N/A   Scattered Clouds
8:53 PM 72.0 °F 66.0 °F 81% 30.09 in 10.0 mi ENE 4.6 mph - N/A   Partly Cloudy
9:53 PM 72.0 °F 66.9 °F 84% 30.11 in 10.0 mi Calm Calm - N/A   Overcast
10:53 PM 72.0 °F 66.0 °F 81% 30.12 in 10.0 mi Calm Calm - N/A   Overcast
11:53 PM 70.0 °F 66.0 °F 87% 30.11 in 10.0 mi Calm Calm - N/A   Mostly Cloudy